Aérodrome :
LOGIN :

S'inscrire | Disclaimer

   EN    FR    IT 

 










Légende :    VFR   VFR Marginal   IFR   IFR Intensif   IFR Très Intensif
Visi : 
Plafond : 
>= 8 km
>= 3000ft
5 à 8 km
1000 à 3000 ft
1500m à 5 km
500 à 1000 ft
800 à 1500m
200 à 500 ft
< 800m
< 200 ft
Symboles :   Orages  Brouillard  Fortes neiges  Fortes précipitations  Vent > 20 kt
SIGMETs :   Divers  Orages  Givrage  Turbulence  Onde Orograph.  Cendres Volcan.






- Altitude de l'aérodrome : 265 ft


LFMC - Le Luc

DERNIER METAR :
  • 091000Z AUTO VRB02KT 9999 ////// 14/08 Q1013

METARs EXPIRÉS :
  • 090930Z AUTO VRB02KT 9999 ////// 12/08 Q1013
  • 090900Z AUTO VRB03KT 9999 ////// 10/07 Q1013
  • 090830Z AUTO VRB02KT 9999 ////// 08/06 Q1014
  • 090800Z AUTO 00000KT 9999 ////// 08/06 Q1014
  • 090730Z AUTO 00000KT 9999 ////// 06/05 Q1013
  • 090700Z AUTO 00000KT 9999 ////// 04/03 Q1013

TAF N/A



MET'MAP, la Météo Aéronautique d'un coup d'oeil ! - Copyright ORBIFLY Décembre 2007 - Disclaimer

ORBIFLY MET'MAP TEAM :

Programmation & Développement : Alexandra Zaïnal
Sur une idée originale de : Baudouin d'Aumeries
Assistance à la programmation : Marc-Olivier Méhu
Soutien technique & logistique : Manuel Goepfert

Contact : metmap@orbifly.com




SOURCES & CREDITS :

   NOAA